537  
ASUS44 KHUN 071810  
RWRHUN  
 
WEATHER ROUNDUP FOR THE TENNESSEE VALLEY  
NATIONAL WEATHER SERVICE HUNTSVILLE AL  
100 PM CDT SUN AUG 07 2022  
 
ALZ001>004-071900-  
NORTHWEST ALABAMA  
 
CITY SKY/WX TMP DP RH WIND PRES REMARKS
 
BANKHEAD NF N/A 78 69 73 W3 N/A  
SHOALS AIRPORT PTSUNNY 83 71 67 SW9G22 30.21R THUNDER  
6HR MIN TEMP: 74; 6HR MAX TEMP: 91;  
 

 
 
ALZ005>007-016-071900-  
NORTH CENTRAL ALABAMA  
 
CITY SKY/WX TMP DP RH WIND PRES REMARKS
 
CULLMAN AG STN N/A 90 N/A N/A SW3 N/A  
DECATUR AP MOSUNNY 88 72 58 VRB3 30.19F HX 94  
6HR MIN TEMP: 72; 6HR MAX TEMP: 90;  
 
HUNTSVILLE AP PTSUNNY 89 75 63 E6 30.20F HX 99  
6HR MIN TEMP: 74; 6HR MAX TEMP: 90;  
 
HUN NWS/UAH N/A 89 72 57 E2 N/A HX 96  
MERIDIANVILLE SUNNY 87 72 59 CALM 30.21F HX 93  
VINEMONT AP FAIR 86 75 70 NE13G18 30.22F HX 95  

 
 
ALZ008>010-071900-  
NORTHEAST ALABAMA  
 
CITY SKY/WX TMP DP RH WIND PRES REMARKS
 
ALBERTVILLE MOSUNNY N/A N/A N/A S3 30.23F  
FORT PAYNE SUNNY 87 72 61 S7 30.21F HX 93  
SCOTTSBORO AP MOSUNNY 88 75 66 SW7 30.21F HX 97  

 
 
TNZ076-096-097-071900-  
SOUTHEASTERN MIDDLE TENNESSEE  
 
CITY SKY/WX TMP DP RH WIND PRES REMARKS
 
FAYETTEVILLE SUNNY 86 75 70 S7 30.22F HX 95  
TULLAHOMA MOSUNNY 86 72 62 VRB3 30.21F HX 92  
WINCHESTER SUNNY 88 72 58 SW3 30.21F HX 94  

 
   
..SURROUNDING SITES
 
 
 
CITY SKY/WX TMP DP RH WIND PRES REMARKS
 
ATLANTA MOSUNNY 85 72 65 VRB5 30.23F HX 91  
ANNISTON SUNNY 87 73 62 CALM 30.21F HX 94  
BIRMINGHAM PTSUNNY 89 74 60 CALM 30.22F HX 98  
CHATTANOOGA MOSUNNY 87 72 60 VRB3 30.22F HX 93  
CORINTH MOSUNNY 91 72 52 SW7 30.17F HX 98  
DALTON NOT AVBL  
GADSDEN PTSUNNY 87 76 69 CALM 30.21F HX 97  
GOLDEN TRNGL MOSUNNY 90 74 59 E3 30.18F THUNDER HX 99  
HALEYVILLE TSTM 72 68 88 VRB5G28 30.24F FOG  
JACKSON TN MOSUNNY 91 73 55 SW9 30.18F HX 99  
MEMPHIS MOSUNNY 91 73 55 VRB5 30.17F HX 99  
NASHVILLE PTSUNNY 89 70 53 SE6 30.17F HX 94  
OXFORD MS SUNNY 90 70 51 VRB7 30.19F HX 95  
ROME MOSUNNY 88 72 58 CALM 30.21F HX 94  
SAVANNAH MOSUNNY 93 70 46 SW7 30.16F HX 99  
SELMER N/A N/A N/A N/A MISG N/A  
TUPELO MOSUNNY 94 72 48 S8 30.17F HX 102  
TUSCALOOSA MOSUNNY 90 74 59 CALM 30.17F HX 99  

 
 
 
 
CLICK HERE TO GO TO PREVIOUS BULLETINS.

The Nexlab AL Page
The Nexlab TN Page Main Text Page